Simultaneous Nadir Overpasses (SNOs) Predictions

Prediction of SNOs between LANDSAT-8 and METOP-A Satellite Orbit:

Table of predicted SNOs for the next 14.0 days since TLE Epoch: 6/20/2020
Index Date (LANDSAT-8) Time (LANDSAT-8) Lat,Lon (LANDSAT-8) SZA (LANDSAT-8 ) Date (METOP-A) Time (METOP-A) Lat,Lon (METOP-A) SZA (METOP-A ) Distance(km) Time Diff (sec)
1 06/22/2020 00:24:24 81.46,-139.78 60.75 06/22/2020 00:24:19 81.47,-139.76 60.75 0.97 5
2 06/22/2020 01:13:51 -81.46, 27.77 119.27 06/22/2020 01:14:59 -81.47, 27.83 119.23 1.27 68
3 06/24/2020 19:09:13 -81.47, 119.18 119.20 06/24/2020 19:07:59 -81.47, 119.19 119.23 0.31 74
4 06/24/2020 19:58:39 81.48, -73.07 60.82 06/24/2020 19:58:39 81.47, -73.12 60.81 1.29 0
5 06/24/2020 20:48:06 -81.47, 94.51 119.20 06/24/2020 20:49:19 -81.46, 94.48 119.17 1.27 73
6 06/27/2020 14:43:30 -81.47,-174.50 119.13 06/27/2020 14:42:21 -81.47,-174.57 119.17 1.52 69
7 06/27/2020 15:32:56 81.47, -6.78 60.88 06/27/2020 15:33:01 81.47, -6.91 60.87 2.15 5
8 06/30/2020 10:17:46 -81.48,-107.81 118.96 06/30/2020 10:16:42 -81.47,-107.96 119.01 2.49 64
9 06/30/2020 11:07:13 81.46, 59.50 61.00 06/30/2020 11:07:22 81.47, 59.69 61.03 3.24 9
10 07/03/2020 05:52:02 -81.47, -41.54 118.79 07/03/2020 05:51:02 -81.47, -41.36 118.80 3.00 60




NCC Satellite Simultaneous Nadir Overpasses (SNOs) Prediction Service
